• In Slovakia
  • List of Countries
  • For 7 days
  • Water Temperature
  • Satellite Maps
  • Weather Map
  • Weather Widgets
  • user-avatar
    Login

    Hourly Weather Kanye

    Today, 20 October, Saturday

    Time Temperature Precipitation Wind Pressure Humidity
    00:00 +25°C° 0 mm 3 mps 652 mmHg 29%
    01:00 +24°C° 0 mm 3 mps 651 mmHg 31%
    02:00 +23°C° 0 mm 2 mps 651 mmHg 33%
    03:00 +23°C° 0 mm 2 mps 651 mmHg 36%
    04:00 +21°C° 0 mm 2 mps 651 mmHg 39%
    05:00 +20°C° 0 mm 2 mps 651 mmHg 41%
    06:00 +21°C° 0 mm 2 mps 652 mmHg 39%
    07:00 +24°C° 0 mm 2 mps 653 mmHg 37%
    08:00 +25°C° 0 mm 2 mps 654 mmHg 35%
    09:00 +27°C° 0 mm 2 mps 654 mmHg 31%
    10:00 +29°C° 0 mm 2 mps 654 mmHg 28%
    11:00 +30°C° 0 mm 2 mps 655 mmHg 25%
    12:00 +32°C° 0 mm 2 mps 654 mmHg 22%
    13:00 +34°C° 0 mm 2 mps 654 mmHg 19%
    14:00 +34°C° 0 mm 1 mps 654 mmHg 17%
    15:00 +34°C° 0 mm 1 mps 653 mmHg 17%
    16:00 +34°C° 0 mm 2 mps 653 mmHg 16%
    17:00 +34°C° 0 mm 2 mps 652 mmHg 16%
    18:00 +32°C° 0 mm 2 mps 653 mmHg 18%
    19:00 +31°C° 0 mm 2 mps 653 mmHg 19%
    20:00 +30°C° 0 mm 3 mps 653 mmHg 20%
    21:00 +29°C° 0.1 mm 4 mps 653 mmHg 24%
    22:00 +28°C° 0.1 mm 5 mps 654 mmHg 28%
    23:00 +27°C° 0.1 mm 7 mps 654 mmHg 31%

    Tomorrow, 21 October, Sunday

    Time Temperature Precipitation Wind Pressure Humidity
    00:00 +23°C° 0.4 mm 7 mps 654 mmHg 41%
    01:00 +21°C° 0.4 mm 8 mps 654 mmHg 51%
    02:00 +18°C° 0.4 mm 9 mps 654 mmHg 62%
    03:00 +17°C° 0.1 mm 9 mps 654 mmHg 62%
    04:00 +16°C° 0.1 mm 9 mps 654 mmHg 62%
    05:00 +16°C° 0.1 mm 9 mps 653 mmHg 62%
    06:00 +16°C° 0.1 mm 9 mps 654 mmHg 60%
    07:00 +16°C° 0.1 mm 9 mps 655 mmHg 58%
    08:00 +17°C° 0.1 mm 10 mps 655 mmHg 56%
    09:00 +18°C° 0.2 mm 10 mps 656 mmHg 53%
    10:00 +19°C° 0.2 mm 9 mps 656 mmHg 51%
    11:00 +19°C° 0.2 mm 9 mps 656 mmHg 48%
    12:00 +21°C° 0.1 mm 9 mps 656 mmHg 45%
    13:00 +22°C° 0.1 mm 8 mps 656 mmHg 43%
    14:00 +23°C° 0.1 mm 8 mps 656 mmHg 40%
    15:00 +23°C° 0.1 mm 8 mps 655 mmHg 41%
    16:00 +22°C° 0.1 mm 8 mps 655 mmHg 41%
    17:00 +22°C° 0.1 mm 7 mps 655 mmHg 42%
    18:00 +21°C° 0 mm 8 mps 654 mmHg 43%
    19:00 +21°C° 0 mm 8 mps 654 mmHg 44%
    20:00 +20°C° 0 mm 8 mps 654 mmHg 45%
    21:00 +18°C° 0 mm 8 mps 654 mmHg 44%
    22:00 +18°C° 0 mm 8 mps 655 mmHg 43%
    23:00 +18°C° 0 mm 8 mps 655 mmHg 41%

    Day after tomorrow, 22 October, Monday

    Time Temperature Precipitation Wind Pressure Humidity
    00:00 +17°C° 0 mm 8 mps 655 mmHg 41%
    01:00 +16°C° 0 mm 9 mps 655 mmHg 41%
    02:00 +16°C° 0 mm 9 mps 655 mmHg 41%
    03:00 +15°C° 0 mm 8 mps 655 mmHg 42%
    04:00 +15°C° 0 mm 7 mps 655 mmHg 44%
    05:00 +14°C° 0 mm 7 mps 655 mmHg 45%
    06:00 +14°C° 0.2 mm 7 mps 656 mmHg 47%
    07:00 +14°C° 0.2 mm 7 mps 656 mmHg 50%
    08:00 +13°C° 0.2 mm 8 mps 657 mmHg 52%
    09:00 +15°C° 0 mm 8 mps 657 mmHg 47%
    10:00 +17°C° 0 mm 8 mps 657 mmHg 41%
    11:00 +18°C° 0 mm 9 mps 658 mmHg 36%
    12:00 +20°C° 0 mm 8 mps 657 mmHg 32%
    13:00 +20°C° 0 mm 8 mps 657 mmHg 29%
    14:00 +21°C° 0 mm 8 mps 657 mmHg 25%
    15:00 +20°C° 0 mm 8 mps 656 mmHg 26%
    16:00 +20°C° 0 mm 7 mps 656 mmHg 26%
    17:00 +18°C° 0 mm 7 mps 656 mmHg 26%
    18:00 +18°C° 0 mm 7 mps 656 mmHg 28%
    19:00 +17°C° 0 mm 7 mps 655 mmHg 29%
    20:00 +16°C° 0 mm 7 mps 655 mmHg 31%
    21:00 +16°C° 0.1 mm 7 mps 656 mmHg 34%
    22:00 +16°C° 0.1 mm 6 mps 656 mmHg 36%
    23:00 +15°C° 0.1 mm 6 mps 656 mmHg 38%

    23 October, Tuesday

    Time Temperature Precipitation Wind Pressure Humidity
    00:00 +15°C° 0.4 mm 6 mps 656 mmHg 43%
    01:00 +14°C° 0.4 mm 7 mps 656 mmHg 47%
    02:00 +14°C° 0.4 mm 7 mps 655 mmHg 52%
    03:00 +12°C° 1 mm 7 mps 655 mmHg 54%
    04:00 +12°C° 1 mm 7 mps 655 mmHg 57%
    05:00 +11°C° 1 mm 7 mps 655 mmHg 60%
    06:00 +12°C° 0.6 mm 7 mps 656 mmHg 59%
    07:00 +12°C° 0.6 mm 7 mps 656 mmHg 57%
    08:00 +12°C° 0.6 mm 7 mps 657 mmHg 55%
    09:00 +14°C° 0 mm 7 mps 657 mmHg 52%
    10:00 +15°C° 0 mm 7 mps 657 mmHg 48%
    11:00 +16°C° 0 mm 8 mps 658 mmHg 45%
    12:00 +16°C° 0 mm 7 mps 657 mmHg 41%
    13:00 +17°C° 0 mm 6 mps 657 mmHg 38%
    14:00 +19°C° 0 mm 5 mps 657 mmHg 35%
    15:00 +19°C° 0 mm 4 mps 657 mmHg 34%
    16:00 +19°C° 0 mm 3 mps 656 mmHg 34%
    17:00 +20°C° 0 mm 3 mps 656 mmHg 33%
    18:00 +19°C° 0 mm 3 mps 656 mmHg 35%
    19:00 +18°C° 0 mm 3 mps 656 mmHg 38%
    20:00 +18°C° 0 mm 3 mps 656 mmHg 40%
    21:00 +17°C° 0 mm 3 mps 656 mmHg 41%
    22:00 +17°C° 0 mm 3 mps 656 mmHg 42%
    23:00 +17°C° 0 mm 3 mps 655 mmHg 43%

    24 October, Wednesday

    Time Temperature Precipitation Wind Pressure Humidity
    00:00 +17°C° 0 mm 3 mps 655 mmHg 43%
    01:00 +16°C° 0 mm 3 mps 655 mmHg 44%
    02:00 +16°C° 0 mm 3 mps 655 mmHg 44%
    03:00 +16°C° 0 mm 3 mps 655 mmHg 44%
    04:00 +16°C° 0 mm 3 mps 655 mmHg 44%
    05:00 +16°C° 0 mm 3 mps 655 mmHg 44%
    06:00 +17°C° 0 mm 4 mps 656 mmHg 44%
    07:00 +16°C° 0 mm 5 mps 656 mmHg 43%
    08:00 +17°C° 0 mm 6 mps 657 mmHg 43%
    09:00 +20°C° 0 mm 6 mps 657 mmHg 38%
    10:00 +21°C° 0 mm 6 mps 657 mmHg 32%
    11:00 +23°C° 0 mm 5 mps 658 mmHg 27%
    12:00 +25°C° 0 mm 5 mps 657 mmHg 24%
    13:00 +26°C° 0 mm 5 mps 657 mmHg 22%
    14:00 +27°C° 0 mm 4 mps 656 mmHg 19%
    15:00 +27°C° 0 mm 4 mps 656 mmHg 19%
    16:00 +27°C° 0 mm 3 mps 655 mmHg 19%
    17:00 +27°C° 0 mm 3 mps 655 mmHg 18%
    18:00 +25°C° 0 mm 3 mps 655 mmHg 20%
    19:00 +24°C° 0 mm 3 mps 655 mmHg 22%
    20:00 +22°C° 0 mm 3 mps 655 mmHg 24%
    21:00 +21°C° 0 mm 2 mps 655 mmHg 26%
    22:00 +21°C° 0 mm 2 mps 655 mmHg 27%
    23:00 +20°C° 0 mm 2 mps 654 mmHg 28%

    25 October, Thursday

    Time Temperature Precipitation Wind Pressure Humidity
    00:00 +20°C° 0 mm 1 mps 654 mmHg 29%
    01:00 +20°C° 0 mm 1 mps 653 mmHg 30%
    02:00 +19°C° 0 mm 1 mps 653 mmHg 31%
    03:00 +19°C° 0 mm 1 mps 653 mmHg 32%
    04:00 +16°C° 0 mm 0 mps 653 mmHg 32%
    05:00 +16°C° 0 mm 0 mps 653 mmHg 33%
    06:00 +20°C° 0 mm 1 mps 653 mmHg 30%
    07:00 +22°C° 0 mm 1 mps 654 mmHg 27%
    08:00 +24°C° 0 mm 1 mps 655 mmHg 23%
    09:00 +25°C° 0 mm 1 mps 655 mmHg 21%
    10:00 +27°C° 0 mm 1 mps 656 mmHg 19%
    11:00 +29°C° 0 mm 1 mps 656 mmHg 16%
    12:00 +30°C° 0 mm 1 mps 655 mmHg 15%
    13:00 +31°C° 0 mm 1 mps 655 mmHg 14%
    14:00 +31°C° 0 mm 1 mps 654 mmHg 12%
    15:00 +31°C° 0 mm 1 mps 654 mmHg 12%
    16:00 +31°C° 0 mm 1 mps 654 mmHg 12%
    17:00 +31°C° 0 mm 1 mps 653 mmHg 12%
    18:00 +30°C° 0 mm 1 mps 653 mmHg 13%
    19:00 +29°C° 0 mm 2 mps 653 mmHg 14%
    20:00 +27°C° 0 mm 2 mps 653 mmHg 15%
    21:00 +26°C° 0 mm 2 mps 653 mmHg 16%
    22:00 +26°C° 0 mm 2 mps 653 mmHg 17%
    23:00 +25°C° 0 mm 2 mps 653 mmHg 18%
    Show more